Maple Lake, MN

4:24 AM CDT on April 25, 2018 (GMT -0500)
Maple Lake Municipal

Weather History for KMGG - October, 2011

Change the Weather History Date:

Friday, October 7, 2011

  Actual Average (KSTC) Record (KSTC)
Temperature  
Mean Temperature 72 °F -  
Max Temperature 79 °F 59 °F 86 °F (2003)
Min Temperature 64 °F 35 °F 19 °F (1976)
Cooling Degree Days 6    
Growing Degree Days 22 (Base 50)    
Moisture  
Dew Point 54 °F    
Average Humidity 54    
Maximum Humidity 64    
Minimum Humidity 44    
Precipitation  
Precipitation 0.00 in - - ()
Sea Level Pressure  
Sea Level Pressure 29.89 in    
Wind  
Wind Speed 11 mph (SSE)    
Max Wind Speed 20 mph    
Max Gust Speed 31 mph    
Visibility 10 miles    
Events      
Averages and records for this station are not official NWS values.
T = Trace of Precipitation, MM = Missing Value Source: NWS Daily Summary

Daily Weather History Graph

Daily Weather History Graph

Search for Another Location

Airport or City:

Astronomy

Oct. 07, 2011 Rise Set
Actual Time 7:21 AM CDT 6:45 PM CDT
Civil Twilight 6:51 AM CDT 7:14 PM CDT
Nautical Twilight 6:17 AM CDT 7:49 PM CDT
Astronomical Twilight 5:43 AM CDT 8:23 PM CDT
Moon 4:37 PM CDT (10/7) 3:00 AM CDT (10/7)
Length of Visible Light 12h 23m
Length of Day
11h 24m
Waxing Gibbous, 83% of the Moon is Illuminated
Oct 7
Waxing Gibbous
Oct 11
Full
Oct 19
Last Quarter
Oct 26
New
Nov 2
First Quarter

Hourly Weather History & Observations

Time (CDT) Temp. Dew Point Humidity Pressure Visibility Wind Dir Wind Speed Gust Speed Precip Events Conditions
12:12 AM 67.8 °F 49.6 °F 52% 29.97 in 10.0 mi SE 8.1 mph - N/A   Clear
12:32 AM 67.1 °F 50.0 °F 54% 29.97 in 10.0 mi SE 8.1 mph - N/A   Clear
12:52 AM 67.1 °F 50.0 °F 54% 29.96 in 10.0 mi SE 9.2 mph - N/A   Scattered Clouds
1:12 AM 66.7 °F 50.0 °F 55% 29.97 in 10.0 mi SE 9.2 mph - N/A   Clear
1:32 AM 66.4 °F 50.0 °F 56% 29.96 in 10.0 mi SE 9.2 mph - N/A   Clear
1:52 AM 66.2 °F 50.2 °F 56% 29.96 in 10.0 mi SE 8.1 mph - N/A   Clear
2:12 AM 65.7 °F 50.0 °F 57% 29.97 in 10.0 mi SSE 6.9 mph - N/A   Clear
2:32 AM 65.3 °F 50.2 °F 58% 29.97 in 10.0 mi SE 5.8 mph - N/A   Clear
2:52 AM 64.8 °F 50.4 °F 60% 29.97 in 10.0 mi SE 6.9 mph - N/A   Clear
3:12 AM 65.3 °F 50.5 °F 59% 29.97 in 10.0 mi SSE 8.1 mph - N/A   Clear
3:32 AM 65.3 °F 50.9 °F 60% 29.97 in 10.0 mi SSE 8.1 mph - N/A   Clear
3:52 AM 65.3 °F 50.9 °F 60% 29.97 in 10.0 mi SSE 6.9 mph - N/A   Clear
4:12 AM 64.8 °F 51.1 °F 61% 29.96 in 10.0 mi SSE 8.1 mph - N/A   Clear
4:32 AM 64.6 °F 51.1 °F 62% 29.95 in 10.0 mi SSE 8.1 mph - N/A   Clear
4:52 AM 64.6 °F 51.4 °F 62% 29.95 in 10.0 mi SSE 8.1 mph - N/A   Clear
5:12 AM 65.3 °F 51.3 °F 60% 29.94 in 10.0 mi SSE 11.5 mph 18.4 mph N/A   Clear
5:32 AM 66.2 °F 51.3 °F 59% 29.94 in 10.0 mi SSE 11.5 mph 17.3 mph N/A   Clear
5:52 AM 66.2 °F 51.3 °F 59% 29.94 in 10.0 mi SSE 13.8 mph 19.6 mph N/A   Clear
6:12 AM 66.0 °F 51.3 °F 59% 29.94 in 10.0 mi SSE 9.2 mph 17.3 mph N/A   Clear
6:32 AM 66.2 °F 51.4 °F 59% 29.93 in 10.0 mi SSE 10.4 mph 20.7 mph N/A   Clear
7:12 AM 64.4 °F 51.6 °F 63% 29.92 in 10.0 mi SE 8.1 mph - N/A   Clear
7:32 AM 64.4 °F 51.6 °F 63% 29.92 in 10.0 mi SSE 10.4 mph 17.3 mph N/A   Clear
7:52 AM 64.0 °F 51.8 °F 64% 29.91 in 10.0 mi SE 12.7 mph 18.4 mph N/A   Clear
8:12 AM 64.4 °F 51.8 °F 64% 29.91 in 10.0 mi SSE 11.5 mph 16.1 mph N/A   Clear
8:32 AM 65.5 °F 52.0 °F 62% 29.92 in 10.0 mi SSE 13.8 mph 23.0 mph N/A   Scattered Clouds
8:52 AM 65.7 °F 52.0 °F 61% 29.90 in 10.0 mi SSE 10.4 mph 20.7 mph N/A   Mostly Cloudy
9:12 AM 67.3 °F 52.0 °F 58% 29.91 in 10.0 mi SSE 18.4 mph 29.9 mph N/A   Scattered Clouds
9:32 AM 68.4 °F 52.2 °F 56% 29.90 in 10.0 mi SSE 16.1 mph 21.9 mph N/A   Scattered Clouds
9:52 AM 69.1 °F 52.2 °F 55% 29.90 in 10.0 mi SSE 15.0 mph 23.0 mph N/A   Scattered Clouds
10:12 AM 69.6 °F 52.2 °F 54% 29.89 in 10.0 mi SSE 17.3 mph 26.5 mph N/A   Scattered Clouds
10:32 AM 71.6 °F 52.3 °F 51% 29.88 in 10.0 mi SSE 15.0 mph 29.9 mph N/A   Scattered Clouds
11:12 AM 72.0 °F 52.9 °F 51% 29.89 in 10.0 mi South 13.8 mph 24.2 mph N/A   Clear
11:32 AM 73.6 °F 52.9 °F 48% 29.88 in 10.0 mi South 15.0 mph 29.9 mph N/A   Clear
12:12 PM 76.3 °F 53.8 °F 45% 29.87 in 10.0 mi South 16.1 mph 23.0 mph N/A   Clear
12:32 PM 77.7 °F 54.5 °F 45% 29.85 in 10.0 mi South 19.6 mph 26.5 mph N/A   Clear
12:53 PM 78.4 °F 55.4 °F 45% 29.85 in 10.0 mi South 19.6 mph 31.1 mph N/A   Clear
1:12 PM 79.3 °F 55.4 °F 44% 29.85 in 10.0 mi South 18.4 mph 27.6 mph N/A   Clear
1:32 PM 78.1 °F 55.8 °F 46% 29.84 in 10.0 mi South 13.8 mph 26.5 mph N/A   Scattered Clouds
1:52 PM 78.3 °F 56.3 °F 47% 29.83 in 10.0 mi South 13.8 mph 26.5 mph N/A   Mostly Cloudy
2:32 PM 79.7 °F 56.3 °F 44% 29.82 in 10.0 mi South 15.0 mph 27.6 mph N/A   Overcast
2:52 PM 79.3 °F 56.8 °F 46% 29.82 in 10.0 mi SSE 18.4 mph 26.5 mph N/A   Mostly Cloudy
3:12 PM 79.0 °F 56.8 °F 46% 29.82 in 10.0 mi SSE 17.3 mph 26.5 mph N/A   Mostly Cloudy
4:12 PM 79.5 °F 58.1 °F 48% 29.81 in 10.0 mi SSE 17.3 mph 26.5 mph N/A   Overcast
4:32 PM 79.7 °F 58.1 °F 47% 29.81 in 10.0 mi South 13.8 mph 28.8 mph N/A   Overcast
4:52 PM 79.7 °F 58.3 °F 48% 29.81 in 10.0 mi South 10.4 mph 27.6 mph N/A   Overcast
5:12 PM 79.3 °F 58.5 °F 49% 29.81 in 10.0 mi South 15.0 mph 27.6 mph N/A   Overcast
5:32 PM 79.7 °F 59.0 °F 49% 29.81 in 10.0 mi South 17.3 mph 26.5 mph N/A   Overcast
5:52 PM 79.7 °F 59.0 °F 49% 29.81 in 10.0 mi South 16.1 mph 21.9 mph N/A   Overcast
6:12 PM 79.3 °F 59.0 °F 50% 29.81 in 10.0 mi South 13.8 mph 24.2 mph N/A   Overcast
6:32 PM 79.2 °F 59.0 °F 50% 29.82 in 10.0 mi South 13.8 mph 21.9 mph N/A   Overcast
6:52 PM 79.0 °F 59.0 °F 50% 29.82 in 10.0 mi South 16.1 mph 25.3 mph N/A   Overcast
7:12 PM 78.8 °F 59.0 °F 51% 29.82 in 10.0 mi South 15.0 mph 28.8 mph N/A   Overcast
7:32 PM 78.4 °F 59.0 °F 51% 29.82 in 10.0 mi South 13.8 mph 25.3 mph N/A   Overcast
7:52 PM 78.3 °F 59.0 °F 51% 29.83 in 10.0 mi South 19.6 mph 27.6 mph N/A   Mostly Cloudy
8:12 PM 78.3 °F 58.8 °F 51% 29.82 in 10.0 mi South 18.4 mph 25.3 mph N/A   Overcast
8:32 PM 78.1 °F 59.0 °F 52% 29.82 in 10.0 mi South 13.8 mph 24.2 mph N/A   Overcast
8:52 PM 78.1 °F 59.0 °F 52% 29.83 in 10.0 mi South 13.8 mph 25.3 mph N/A   Overcast
9:12 PM 77.9 °F 58.6 °F 51% 29.84 in 10.0 mi South 17.3 mph 26.5 mph N/A   Overcast
9:32 PM 77.9 °F 58.6 °F 51% 29.85 in 10.0 mi South 17.3 mph 28.8 mph N/A   Overcast
9:52 PM 77.5 °F 59.0 °F 53% 29.85 in 10.0 mi South 16.1 mph 25.3 mph N/A   Overcast
10:12 PM 77.4 °F 59.0 °F 53% 29.86 in 10.0 mi South 13.8 mph 27.6 mph N/A   Mostly Cloudy
10:32 PM 77.4 °F 59.2 °F 53% 29.87 in 10.0 mi South 16.1 mph 29.9 mph N/A   Overcast
10:52 PM 77.0 °F 59.4 °F 54% 29.86 in 10.0 mi South 13.8 mph 26.5 mph N/A   Mostly Cloudy
11:13 PM 77.0 °F 59.5 °F 55% 29.87 in 10.0 mi South 18.4 mph 35.7 mph N/A   Mostly Cloudy
11:32 PM 76.8 °F 59.5 °F 55% 29.88 in 10.0 mi South 18.4 mph 31.1 mph N/A   Mostly Cloudy
11:52 PM 76.5 °F 59.9 °F 56% 29.88 in 10.0 mi South 15.0 mph 33.4 mph N/A   Scattered Clouds